Location: Alafon
(8.4500°N, 4.2333°E)
Time: 00:45:07
(UTC+00:00)

Explorer 7 - Pass Details

Date: 29 July 2021
Orbit: 484 x 676 km, 50.3° (Epoch: 22 September)

Event Time Altitude Azimuth Distance (km) Brightness Sun altitude
Rises 13:30:01 0° 335° (NNW) 2,910 10.8 63.6°
Reaches altitude 10° 13:32:25 10° 343° (NNW) 2,030 10.1 63.1°
Maximum altitude 13:36:49 39° 52° (NE) 988 8.5 62.1°
Drops below altitude 10° 13:41:21 10° 120° (ESE) 2,095 9.6 61.1°
Sets 13:43:51 0° 128° (SE) 3,015 10.3 60.5°
